SCP
0 0 0 0 0 0 0 0 0 0 0 0 0 0 0 0 -0 -0 0 0 0 0 0 0 0 0 0 0 0 0 0 0 0 0 0 0 0 0 0 0 0 0 0
0 0 0 0 0 0 0 0 0 0 0 0 0 0 0 -0 -0 0 0 0 0 0 0 0 0 0 0 0 0 0 0 0 0 0 0 0 0 0 0 0 0 0 0
0 0 0 0 0 0 0 0 0 0 0 0 0 0 0 0 0 0 0 0 0 0 0 0 0 0 0 0 0 0 0 0 0 0 0 0 0 0 0 0 0 0 0
0 0 0 0 0 0 0 0 0 0 0 0 0 0 0 0 0 0 0 0 0 0 0 0 0 0 0 0 0 0 0 0 0 0 0 0 0 0 0 0 0 0 0
0 0 0 0 0 0 0 0 0 0 0 0 0 0 0 -0 0 0 0 0 0 0 0 0 0 0 0 0 0 0 0 0 0 0 0 0 0 0 0 0 0 0 0
0 0 0 0 0 0 0 0 0 0 0 0 0 0 0 0 0 0 0 0 0 0 0 0 0 0 0 0 0 0 0 0 0 0 0 0 0 0 0 0 0 0 0
0 0 0 0 0 0 0 0 0 0 0 0 0 0 0 0 0 0 0 0 0 0 0 0 0 0 0 0 0 0 0 0 0 0 0 0 0 0 0 0 0 0 0
0 0 0 0 0 0 0 0 0 0 0 0 0 0 0 0 0 0 0 0 0 0 0 0 0 0 0 0 0 0 0 0 0 0 0 0 0 0 0 0 0 0 -0
0 0 0 0 0 0 0 0 0 0 0 0 0 0 0 0 0 0 0 0 0 0 0 0 0 0 0 0 0 0 0 0 0 0 0 0 0 0 0 0 0 0 0
0 0 0 0 0 0 0 0 0 0 0 0 0 0 0 0 0 0 0 0 0 0 0 0 0 0 0 0 0 0 0 0 0 0 0 0 0 0 0 0 0 0 0
0 0 0 0 0 0 0 0 0 0 0 0 0 0 0 0 0 0 0 0 0 0 0 0 -0 -0 0 0 0 0 0 0 0 0 0 0 0 0 0 0 0 0 0
0 0 0 0 0 0 0 0 0 0 0 0 0 0 0 0 0 0 0 0 0 0 0 -0 0 -0 -0 -0 -0 0 0 0 0 0 0 0 0 0 0 0 0 0 0
0 0 0 0 0 0 0 0 0 0 0 0 0 0 0 0 0 0 0 0 0 0 -0 0 -0 0 -0 -0 -0 0 0 0 0 0 0 0 0 0 0 0 0 0 0
0 0 0 0 0 0 0 0 0 0 0 0 0 0 0 0 0 0 0 0 0 -0 -0 -0 0 0 -0 -0 0 0 -0 0 0 0 0 0 0 0 0 0 0 0 0
0 0 0 0 0 0 0 0 0 0 0 0 0 0 0 0 0 0 0 0 0 0 0 -0 -0 0 0 0 0 -0 -0 -0 0 0 0 0 0 0 0 0 0 0 0
0 0 0 0 0 0 0 0 0 0 0 0 0 0 0 0 0 0 0 0 0 0 0 0 0 0 0 -0 0 -0 -0 0 0 0 0 0 0 0 0 0 0 0 0
0 0 0 0 0 0 0 0 0 0 0 0 0 0 0 0 0 0 0 0 0 0 0 0 0 0 0 -0 -0 -0 -0 -0 -0 0 0 0 0 0 0 0 0 0 0
0 0 0 0 0 0 0 0 0 0 0 0 0 0 0 0 0 0 0 0 0 0 0 0 0 0 0 -0 -0 -0 -0 -0 -0 -0 0 0 0 0 0 0 0 0 0
0 0 0 0 0 0 0 0 0 0 0 0 0 0 0 0 0 0 0 0 0 0 0 0 0 0 0 -0 -0 -0 -0 -0 -0 -0 0 0 0 0 0 0 0 0 0
0 0 0 0 0 0 0 0 0 0 0 0 0 0 0 0 0 0 0 0 0 0 0 0 0 0 0 0 0 -0 -0 -0 -0 0 0 0 0 0 0 0 0 0 0
0 0 0 0 0 0 0 0 0 0 0 0 0 0 0 0 0 0 0 0 0 0 0 0 0 0 0 0 0 0 0 0 0 0 0 0 0 0 0 0 0 0 0
0 0 0 0 0 0 0 0 0 0 0 0 0 0 0 0 0 0 0 0 0 0 0 0 0 0 0 0 0 0 0 0 0 0 0 0 0 0 0 0 0 0 0
0 0 0 0 0 0 0 0 0 0 0 0 0 0 0 0 0 0 0 0 0 0 0 0 0 0 0 0 0 0 0 0 0 0 0 0 0 0 0 0 0 0 0
0 0 0 0 0 0 0 0 0 0 0 0 0 0 0 0 0 0 0 0 0 0 0 0 0 0 0 0 0 0 0 0 0 0 0 0 0 0 0 0 0 0 0
0 0 0 0 0 0 0 0 0 0 0 0 0 0 0 0 0 0 0 0 0 0 0 0 0 0 0 0 0 0 0 0 0 0 0 0 0 0 0 0 0 0 0
0 0 0 0 0 0 0 0 0 0 0 0 0 0 0 0 0 0 0 0 0 0 0 0 0 0 0 0 0 0 0 0 0 0 0 0 0 0 0 0 0 0 0
Wind_Speed_500mb
16 12 9 10 8 12 9 13 19 20 24 28 29 33 35 42 43 40 37 33 31 31 31 30 29 28 27 26 24 22 27 27 20 21 23 21 24 28 31 30 33 36 38
17 14 15 17 15 11 12 13 16 21 17 14 25 29 30 29 42 45 41 38 33 31 31 32 33 32 32 30 28 28 20 26 37 29 26 25 24 26 28 30 33 35 35
3 5 13 6 6 12 11 15 20 15 10 19 21 22 24 27 26 32 35 36 38 37 34 31 33 34 34 33 32 33 33 25 24 41 40 33 26 28 31 30 31 34 35
9 14 12 7 4 5 9 9 8 9 11 14 16 18 20 23 23 30 31 33 33 31 30 31 30 33 33 33 34 35 35 35 34 24 39 41 38 36 33 34 33 35 36
14 10 7 7 9 3 3 1 4 9 16 20 22 20 18 14 16 21 21 19 21 22 22 22 23 25 26 28 31 34 37 38 39 40 33 30 41 41 39 40 41 39 41
13 10 9 6 3 4 5 6 7 14 16 20 17 14 14 16 20 15 22 22 19 21 23 26 29 27 29 27 27 28 32 37 41 42 47 43 34 39 43 44 44 46 41
11 8 3 3 2 1 3 6 5 11 14 17 17 17 11 12 15 25 24 18 26 25 31 36 40 40 42 40 38 35 29 36 38 43 47 51 53 38 37 50 50 49 54
15 12 12 13 13 12 14 16 15 18 20 22 21 11 3 8 9 13 17 21 31 37 38 48 49 45 49 44 44 42 47 47 40 40 43 47 51 53 47 37 48 51 47
20 17 15 14 14 14 15 17 19 20 25 25 27 20 9 8 32 11 27 26 43 38 56 52 43 56 50 51 50 46 45 45 46 50 47 47 48 51 58 61 43 37 46
18 15 13 12 11 14 14 17 20 22 22 23 23 25 19 18 12 25 29 45 45 56 61 57 61 58 56 54 48 52 54 47 42 43 46 48 50 51 55 58 66 67 60
16 14 12 11 11 14 17 19 20 25 28 30 30 27 23 18 13 29 45 63 65 60 59 63 66 65 60 59 59 58 51 45 50 60 59 54 55 55 57 60 62 64 73
14 12 10 11 14 18 21 25 28 29 30 29 29 30 30 31 35 37 48 58 61 67 69 67 66 65 63 62 59 58 60 69 69 71 75 75 76 67 61 59 63 68 65
9 7 8 10 12 15 19 22 25 27 28 29 28 27 27 27 31 35 43 54 64 73 68 67 68 67 60 59 60 66 78 78 81 81 80 81 80 75 69 67 63 61 66
7 2 0 3 7 12 16 20 22 24 24 25 25 27 29 32 35 39 44 50 66 65 73 72 71 67 63 71 83 85 89 87 86 87 87 83 81 80 76 71 70 68 66
9 7 5 3 7 10 15 19 22 23 23 25 28 30 34 37 40 42 45 47 45 50 80 86 77 77 84 87 88 90 91 93 90 87 87 86 85 81 79 77 74 72 72
14 10 6 3 7 12 17 21 23 24 25 29 32 35 37 40 43 45 49 50 49 48 57 89 94 91 91 90 92 93 92 92 90 85 81 76 75 77 77 76 75 73 73
16 9 3 5 11 17 22 23 24 27 30 33 35 37 38 43 47 51 54 56 58 56 65 99 94 96 94 92 91 92 94 93 90 85 75 70 70 71 71 70 68 69 70
15 9 5 8 14 18 20 22 25 29 32 35 37 39 42 47 50 54 59 63 66 67 67 85 105 101 99 93 90 87 86 84 85 82 63 57 60 57 57 52 57 61 63
17 12 11 13 15 18 22 24 28 32 37 39 41 43 45 50 55 58 62 67 69 70 71 79 102 97 99 92 91 84 76 73 73 73 71 67 65 67 63 66 73 73 68
21 20 17 18 21 23 24 25 29 33 37 41 44 46 49 53 57 60 64 66 71 74 76 80 90 96 90 88 74 78 86 79 79 71 66 63 60 59 53 55 58 60 64
28 26 23 25 28 29 30 31 33 35 38 42 47 49 52 54 57 61 64 66 67 70 72 77 81 86 89 84 83 82 84 88 89 84 83 73 80 78 70 63 57 50 52
34 32 31 33 35 37 37 36 37 40 43 47 51 52 53 55 56 60 63 64 56 54 64 68 78 85 89 86 86 86 90 94 96 80 74 93 83 82 78 69 59 50 51
38 38 37 40 42 44 42 42 44 47 51 53 54 54 56 56 56 61 64 62 59 60 53 63 75 80 92 86 82 90 91 91 93 88 83 86 70 81 82 78 65 57 55
44 42 43 46 48 47 47 47 50 53 56 56 56 56 58 57 57 63 61 64 66 67 67 64 69 80 83 88 87 87 83 90 90 81 67 83 81 81 78 68 70 61 54
47 46 45 47 50 48 48 50 54 57 58 59 57 57 58 57 57 52 49 61 73 78 71 66 63 64 67 69 69 73 78 82 82 71 65 72 71 68 78 79 60 30 27
51 50 48 49 49 48 50 53 55 58 62 62 60 60 58 57 53 38 44 61 75 72 69 75 75 71 67 63 59 52 52 60 63 61 52 60 71 71 67 59 18 48 73
Wind_Direction_500mb
199 202 224 256 274 293 316 330 336 339 341 340 345 355 358 353 345 339 331 325 316 308 304 303 303 303 302 302 300 315 313 304 294 297 303 304 299 296 292 285 277 271 265
222 232 261 277 284 278 294 311 308 321 315 325 331 337 340 345 338 339 337 331 323 316 310 302 299 297 297 297 295 293 291 305 305 303 298 303 307 308 301 295 287 280 271
268 256 265 265 285 266 290 299 315 321 314 316 333 333 330 327 326 325 324 327 325 322 314 307 303 299 296 294 292 288 284 274 308 304 306 306 302 307 315 308 297 286 277
200 228 251 247 226 322 339 325 332 320 314 307 308 314 322 327 327 317 326 327 329 327 322 319 312 305 301 296 290 287 285 279 266 287 287 299 301 300 304 308 309 296 286
158 153 140 155 112 149 150 330 296 296 289 305 316 324 338 331 321 326 331 355 358 356 355 346 337 327 317 308 300 293 287 281 276 267 268 281 293 292 295 302 307 304 294
149 154 155 158 163 260 290 284 298 296 340 351 3 18 29 4 332 10 359 354 344 343 343 339 333 325 318 313 306 302 293 284 275 267 261 255 271 287 288 287 297 302 300
149 148 167 170 192 221 40 50 21 15 9 8 15 67 58 346 29 355 343 343 351 4 359 359 352 348 343 334 315 300 297 282 282 277 271 265 265 270 275 281 286 290 300
135 129 111 98 88 73 64 54 38 21 13 10 19 37 46 319 15 15 339 343 335 334 336 341 341 342 339 334 332 327 311 297 289 283 278 273 266 255 260 270 267 279 288
122 114 103 88 75 61 51 44 35 21 22 17 17 28 16 353 331 239 312 324 325 328 328 333 340 337 339 336 331 325 326 325 311 296 288 283 276 267 257 254 255 258 271
122 112 98 84 62 46 37 29 24 17 13 16 19 25 26 2 338 315 309 320 320 330 333 335 334 334 333 334 333 323 322 318 318 320 310 298 290 282 271 261 256 254 261
123 107 92 74 57 40 32 25 21 12 11 7 8 3 357 356 325 313 318 323 323 331 332 333 337 339 334 330 327 322 321 317 310 308 301 303 311 301 287 277 267 259 250
128 111 83 56 40 29 20 13 9 3 1 1 0 357 354 351 340 335 323 326 325 326 327 329 334 334 332 327 325 320 312 310 309 304 300 298 300 298 294 289 281 274 264
123 89 58 35 21 14 8 1 357 353 353 350 352 350 347 342 335 329 325 323 322 324 326 325 328 329 327 318 312 307 307 306 306 304 301 299 297 295 291 287 284 281 277
150 123 339 360 360 360 355 351 347 347 349 344 346 344 340 338 335 331 329 324 323 322 322 323 328 327 323 311 306 305 306 306 304 302 301 299 296 294 291 287 281 279 277
195 199 232 307 343 356 354 350 345 341 342 341 342 339 338 335 334 333 330 328 325 315 318 323 321 317 317 315 313 311 309 309 308 305 301 299 297 293 290 286 282 278 275
202 205 221 307 347 353 351 348 341 339 339 338 337 338 336 334 334 333 329 326 319 313 303 317 316 315 315 313 313 311 309 307 306 306 306 303 298 296 293 288 283 279 275
200 203 230 319 342 349 343 338 335 332 332 332 333 333 333 332 332 329 325 323 320 315 306 314 312 314 312 313 314 311 311 311 309 308 306 302 304 301 298 296 292 285 281
205 211 250 309 325 329 332 331 329 326 328 328 328 327 328 327 327 325 323 322 320 316 309 309 314 315 314 315 316 316 317 315 313 309 310 296 292 288 284 288 290 290 287
215 230 259 286 311 318 318 323 324 324 325 322 320 320 322 322 322 320 320 319 317 314 312 311 312 314 314 319 323 324 325 321 319 315 311 308 304 298 296 290 287 288 285
228 240 256 283 293 300 302 308 314 320 322 318 314 314 316 315 316 317 318 317 318 316 315 313 312 314 317 323 327 326 324 323 322 323 323 322 318 312 304 296 287 277 278
236 246 260 276 283 285 289 294 303 310 314 314 311 309 309 311 313 316 318 318 315 314 315 315 311 313 316 321 320 320 314 317 318 321 319 322 322 318 314 313 309 298 288
242 252 265 276 281 281 283 288 294 301 307 311 310 307 306 308 311 315 316 314 312 312 309 308 312 309 312 312 314 312 311 309 304 314 313 311 316 315 315 313 311 305 297
248 260 272 279 281 279 281 284 289 298 304 307 306 305 305 307 311 314 316 317 318 319 305 302 302 309 312 315 316 311 309 306 301 308 307 302 309 307 310 310 306 301 297
256 267 276 280 280 280 280 283 288 294 300 304 303 302 303 306 312 316 320 322 316 311 310 308 300 298 300 305 302 300 300 296 295 300 299 295 302 300 307 308 308 303 297
262 271 276 279 281 280 279 281 285 292 298 302 301 300 300 304 312 317 313 307 307 309 314 310 305 304 302 300 297 294 291 295 299 303 306 302 306 305 309 310 319 309 308
264 265 270 275 279 280 277 279 285 293 298 298 297 297 297 302 308 303 307 302 305 316 318 317 316 316 314 312 310 304 299 300 304 309 309 298 302 308 306 308 292 297 306
Wind_Speed_850mb
16 12 9 10 8 12 9 13 19 20 24 28 29 33 35 42 43 40 37 33 31 31 31 30 29 28 27 26 24 22 27 27 20 21 23 21 24 28 31 30 33 36 38
17 14 15 17 15 11 12 13 16 21 17 14 25 29 30 29 42 45 41 38 33 31 31 32 33 32 32 30 28 28 20 26 37 29 26 25 24 26 28 30 33 35 35
3 5 13 6 6 12 11 15 20 15 10 19 21 22 24 27 26 32 35 36 38 37 34 31 33 34 34 33 32 33 33 25 24 41 40 33 26 28 31 30 31 34 35
9 14 12 7 4 5 9 9 8 9 11 14 16 18 20 23 23 30 31 33 33 31 30 31 30 33 33 33 34 35 35 35 34 24 39 41 38 36 33 34 33 35 36
14 10 7 7 9 3 3 1 4 9 16 20 22 20 18 14 16 21 21 19 21 22 22 22 23 25 26 28 31 34 37 38 39 40 33 30 41 41 39 40 41 39 41
13 10 9 6 3 4 5 6 7 14 16 20 17 14 14 16 20 15 22 22 19 21 23 26 29 27 29 27 27 28 32 37 41 42 47 43 34 39 43 44 44 46 41
11 8 3 3 2 1 3 6 5 11 14 17 17 17 11 12 15 25 24 18 26 25 31 36 40 40 42 40 38 35 29 36 38 43 47 51 53 38 37 50 50 49 54
15 12 12 13 13 12 14 16 15 18 20 22 21 11 3 8 9 13 17 21 31 37 38 48 49 45 49 44 44 42 47 47 40 40 43 47 51 53 47 37 48 51 47
20 17 15 14 14 14 15 17 19 20 25 25 27 20 9 8 32 11 27 26 43 38 56 52 43 56 50 51 50 46 45 45 46 50 47 47 48 51 58 61 43 37 46
18 15 13 12 11 14 14 17 20 22 22 23 23 25 19 18 12 25 29 45 45 56 61 57 61 58 56 54 48 52 54 47 42 43 46 48 50 51 55 58 66 67 60
16 14 12 11 11 14 17 19 20 25 28 30 30 27 23 18 13 29 45 63 65 60 59 63 66 65 60 59 59 58 51 45 50 60 59 54 55 55 57 60 62 64 73
14 12 10 11 14 18 21 25 28 29 30 29 29 30 30 31 35 37 48 58 61 67 69 67 66 65 63 62 59 58 60 69 69 71 75 75 76 67 61 59 63 68 65
9 7 8 10 12 15 19 22 25 27 28 29 28 27 27 27 31 35 43 54 64 73 68 67 68 67 60 59 60 66 78 78 81 81 80 81 80 75 69 67 63 61 66
7 2 0 3 7 12 16 20 22 24 24 25 25 27 29 32 35 39 44 50 66 65 73 72 71 67 63 71 83 85 89 87 86 87 87 83 81 80 76 71 70 68 66
9 7 5 3 7 10 15 19 22 23 23 25 28 30 34 37 40 42 45 47 45 50 80 86 77 77 84 87 88 90 91 93 90 87 87 86 85 81 79 77 74 72 72
14 10 6 3 7 12 17 21 23 24 25 29 32 35 37 40 43 45 49 50 49 48 57 89 94 91 91 90 92 93 92 92 90 85 81 76 75 77 77 76 75 73 73
16 9 3 5 11 17 22 23 24 27 30 33 35 37 38 43 47 51 54 56 58 56 65 99 94 96 94 92 91 92 94 93 90 85 75 70 70 71 71 70 68 69 70
15 9 5 8 14 18 20 22 25 29 32 35 37 39 42 47 50 54 59 63 66 67 67 85 105 101 99 93 90 87 86 84 85 82 63 57 60 57 57 52 57 61 63
17 12 11 13 15 18 22 24 28 32 37 39 41 43 45 50 55 58 62 67 69 70 71 79 102 97 99 92 91 84 76 73 73 73 71 67 65 67 63 66 73 73 68
21 20 17 18 21 23 24 25 29 33 37 41 44 46 49 53 57 60 64 66 71 74 76 80 90 96 90 88 74 78 86 79 79 71 66 63 60 59 53 55 58 60 64
28 26 23 25 28 29 30 31 33 35 38 42 47 49 52 54 57 61 64 66 67 70 72 77 81 86 89 84 83 82 84 88 89 84 83 73 80 78 70 63 57 50 52
34 32 31 33 35 37 37 36 37 40 43 47 51 52 53 55 56 60 63 64 56 54 64 68 78 85 89 86 86 86 90 94 96 80 74 93 83 82 78 69 59 50 51
38 38 37 40 42 44 42 42 44 47 51 53 54 54 56 56 56 61 64 62 59 60 53 63 75 80 92 86 82 90 91 91 93 88 83 86 70 81 82 78 65 57 55
44 42 43 46 48 47 47 47 50 53 56 56 56 56 58 57 57 63 61 64 66 67 67 64 69 80 83 88 87 87 83 90 90 81 67 83 81 81 78 68 70 61 54
47 46 45 47 50 48 48 50 54 57 58 59 57 57 58 57 57 52 49 61 73 78 71 66 63 64 67 69 69 73 78 82 82 71 65 72 71 68 78 79 60 30 27
51 50 48 49 49 48 50 53 55 58 62 62 60 60 58 57 53 38 44 61 75 72 69 75 75 71 67 63 59 52 52 60 63 61 52 60 71 71 67 59 18 48 73
Wind_Direction_850mb
199 202 224 256 274 293 316 330 336 339 341 340 345 355 358 353 345 339 331 325 316 308 304 303 303 303 302 302 300 315 313 304 294 297 303 304 299 296 292 285 277 271 265
222 232 261 277 284 278 294 311 308 321 315 325 331 337 340 345 338 339 337 331 323 316 310 302 299 297 297 297 295 293 291 305 305 303 298 303 307 308 301 295 287 280 271
268 256 265 265 285 266 290 299 315 321 314 316 333 333 330 327 326 325 324 327 325 322 314 307 303 299 296 294 292 288 284 274 308 304 306 306 302 307 315 308 297 286 277
200 228 251 247 226 322 339 325 332 320 314 307 308 314 322 327 327 317 326 327 329 327 322 319 312 305 301 296 290 287 285 279 266 287 287 299 301 300 304 308 309 296 286
158 153 140 155 112 149 150 330 296 296 289 305 316 324 338 331 321 326 331 355 358 356 355 346 337 327 317 308 300 293 287 281 276 267 268 281 293 292 295 302 307 304 294
149 154 155 158 163 260 290 284 298 296 340 351 3 18 29 4 332 10 359 354 344 343 343 339 333 325 318 313 306 302 293 284 275 267 261 255 271 287 288 287 297 302 300
149 148 167 170 192 221 40 50 21 15 9 8 15 67 58 346 29 355 343 343 351 4 359 359 352 348 343 334 315 300 297 282 282 277 271 265 265 270 275 281 286 290 300
135 129 111 98 88 73 64 54 38 21 13 10 19 37 46 319 15 15 339 343 335 334 336 341 341 342 339 334 332 327 311 297 289 283 278 273 266 255 260 270 267 279 288
122 114 103 88 75 61 51 44 35 21 22 17 17 28 16 353 331 239 312 324 325 328 328 333 340 337 339 336 331 325 326 325 311 296 288 283 276 267 257 254 255 258 271
122 112 98 84 62 46 37 29 24 17 13 16 19 25 26 2 338 315 309 320 320 330 333 335 334 334 333 334 333 323 322 318 318 320 310 298 290 282 271 261 256 254 261
123 107 92 74 57 40 32 25 21 12 11 7 8 3 357 356 325 313 318 323 323 331 332 333 337 339 334 330 327 322 321 317 310 308 301 303 311 301 287 277 267 259 250
128 111 83 56 40 29 20 13 9 3 1 1 0 357 354 351 340 335 323 326 325 326 327 329 334 334 332 327 325 320 312 310 309 304 300 298 300 298 294 289 281 274 264
123 89 58 35 21 14 8 1 357 353 353 350 352 350 347 342 335 329 325 323 322 324 326 325 328 329 327 318 312 307 307 306 306 304 301 299 297 295 291 287 284 281 277
150 123 339 360 360 360 355 351 347 347 349 344 346 344 340 338 335 331 329 324 323 322 322 323 328 327 323 311 306 305 306 306 304 302 301 299 296 294 291 287 281 279 277
195 199 232 307 343 356 354 350 345 341 342 341 342 339 338 335 334 333 330 328 325 315 318 323 321 317 317 315 313 311 309 309 308 305 301 299 297 293 290 286 282 278 275
202 205 221 307 347 353 351 348 341 339 339 338 337 338 336 334 334 333 329 326 319 313 303 317 316 315 315 313 313 311 309 307 306 306 306 303 298 296 293 288 283 279 275
200 203 230 319 342 349 343 338 335 332 332 332 333 333 333 332 332 329 325 323 320 315 306 314 312 314 312 313 314 311 311 311 309 308 306 302 304 301 298 296 292 285 281
205 211 250 309 325 329 332 331 329 326 328 328 328 327 328 327 327 325 323 322 320 316 309 309 314 315 314 315 316 316 317 315 313 309 310 296 292 288 284 288 290 290 287
215 230 259 286 311 318 318 323 324 324 325 322 320 320 322 322 322 320 320 319 317 314 312 311 312 314 314 319 323 324 325 321 319 315 311 308 304 298 296 290 287 288 285
228 240 256 283 293 300 302 308 314 320 322 318 314 314 316 315 316 317 318 317 318 316 315 313 312 314 317 323 327 326 324 323 322 323 323 322 318 312 304 296 287 277 278
236 246 260 276 283 285 289 294 303 310 314 314 311 309 309 311 313 316 318 318 315 314 315 315 311 313 316 321 320 320 314 317 318 321 319 322 322 318 314 313 309 298 288
242 252 265 276 281 281 283 288 294 301 307 311 310 307 306 308 311 315 316 314 312 312 309 308 312 309 312 312 314 312 311 309 304 314 313 311 316 315 315 313 311 305 297
248 260 272 279 281 279 281 284 289 298 304 307 306 305 305 307 311 314 316 317 318 319 305 302 302 309 312 315 316 311 309 306 301 308 307 302 309 307 310 310 306 301 297
256 267 276 280 280 280 280 283 288 294 300 304 303 302 303 306 312 316 320 322 316 311 310 308 300 298 300 305 302 300 300 296 295 300 299 295 302 300 307 308 308 303 297
262 271 276 279 281 280 279 281 285 292 298 302 301 300 300 304 312 317 313 307 307 309 314 310 305 304 302 300 297 294 291 295 299 303 306 302 306 305 309 310 319 309 308
264 265 270 275 279 280 277 279 285 293 298 298 297 297 297 302 308 303 307 302 305 316 318 317 316 316 314 312 310 304 299 300 304 309 309 298 302 308 306 308 292 297 306